Location: Allison Elementary School
(34.0784°N, 117.7317°W)
Time: 02:31:26
(UTC+00:00)

ERBS - Pass Details

Date: 15 November 2019
Orbit: 411 x 430 km, 57.0° (Epoch: 07 December)

Event Time Altitude Azimuth Distance (km) Brightness Sun altitude
Rises 01:23:48 0° 222° (SW) 2,327 7.2 -7.9°
Reaches altitude 10° 01:25:52 10° 224° (SW) 1,471 6.1 -8.3°
Maximum altitude 01:29:08 73° 310° (NW) 433 2.4 -8.9°
Drops below altitude 10° 01:32:27 10° 35° (NE) 1,485 4.6 -9.6°
Enters shadow 01:32:43 - 36° (NE) 1,598 4.7 -9.6°
